Weather History for KNLC - August, 2013

Change the Weather History Date:

Monday, August 26, 2013

  Actual Average Record
Temperature  
Mean Temperature 80 °F -  
Max Temperature 96 °F 92 °F 102 °F (2003)
Min Temperature 66 °F 60 °F 54 °F (2006)
Cooling Degree Days 16    
Growing Degree Days 30 (Base 50)    
Moisture  
Dew Point 56 °F    
Average Humidity 46    
Maximum Humidity 70    
Minimum Humidity 26    
Precipitation  
Precipitation 0.00 in - - ()
Sea Level Pressure  
Sea Level Pressure 29.90 in    
Wind  
Wind Speed 10 mph (NNW)    
Max Wind Speed 17 mph    
Max Gust Speed -    
Visibility 10 miles    
Events      
Averages and records for this station are not official NWS values.
T = Trace of Precipitation, MM = Missing Value Source: NWS Daily Summary

Daily Weather History Graph

Daily Weather History Graph

Search for Another Location

Airport or City:

Trip Planner

Search our weather history database for the weather conditions in past years. The results will help you decide how hot, cold, wet, or windy it might be!

Date:

Astronomy

Aug. 26, 2013 Rise Set
Actual Time 6:26 AM PDT 7:35 PM PDT
Civil Twilight 6:00 AM PDT 8:02 PM PDT
Nautical Twilight 5:28 AM PDT 8:33 PM PDT
Astronomical Twilight 4:55 AM PDT 9:06 PM PDT
Moon 11:02 PM PDT (8/26) 12:21 PM PDT (8/26)
Length of Visible Light 14h 01m
Length of Day
13h 08m
Waning Gibbous, 65% of the Moon is Illuminated
Aug 26
Waning Gibbous
Aug 28
Last Quarter
Sep 5
New
Sep 12
First Quarter
Sep 19
Full

Hourly Weather History & Observations

Time (PDT) Temp. Heat Index Dew Point Humidity Pressure Visibility Wind Dir Wind Speed Gust Speed Precip Events Conditions
12:56 AM 72.0 °F - 55.0 °F 55% 29.89 in 10.0 mi WNW 8.1 mph - N/A   Clear
1:56 AM 71.1 °F - 54.0 °F 55% 29.91 in 10.0 mi NW 9.2 mph - N/A   Clear
2:56 AM 69.1 °F - 51.1 °F 53% 29.92 in 10.0 mi NW 9.2 mph - N/A   Clear
3:56 AM 68.0 °F - 52.0 °F 56% 29.93 in 10.0 mi NW 10.4 mph - N/A   Clear
4:56 AM 66.9 °F - 55.0 °F 66% 29.93 in 10.0 mi NW 12.7 mph - N/A   Clear
5:56 AM 66.0 °F - 55.0 °F 68% 29.95 in 10.0 mi NW 12.7 mph - N/A   Clear
6:56 AM 66.0 °F - 55.9 °F 70% 29.96 in 10.0 mi NW 10.4 mph - N/A   Clear
7:56 AM 69.1 °F - 57.0 °F 65% 29.97 in 10.0 mi NW 17.3 mph - N/A   Clear
8:56 AM 73.0 °F - 57.0 °F 57% 29.98 in 10.0 mi NW 12.7 mph - N/A   Clear
9:56 AM 75.9 °F - 57.0 °F 52% 29.98 in 10.0 mi NNW 10.4 mph - N/A   Clear
10:56 AM 82.0 °F 81.6 °F 55.9 °F 41% 29.97 in 10.0 mi NNW 9.2 mph - N/A   Clear
11:56 AM 84.0 °F 83.0 °F 55.9 °F 38% 29.94 in 10.0 mi NNW 6.9 mph - N/A   Clear
12:56 PM 87.1 °F 85.7 °F 55.9 °F 35% 29.91 in 10.0 mi Variable 6.9 mph - N/A   Clear
1:56 PM 91.0 °F 88.9 °F 55.0 °F 29% 29.89 in 9.0 mi Variable 6.9 mph - N/A   Clear
2:56 PM 93.9 °F 92.6 °F 57.0 °F 29% 29.86 in 10.0 mi North 8.1 mph - N/A   Clear
3:56 PM 93.9 °F 92.2 °F 55.9 °F 28% 29.84 in 10.0 mi North 9.2 mph - N/A   Partly Cloudy
4:56 PM 95.0 °F 93.0 °F 55.0 °F 26% 29.82 in 10.0 mi North 8.1 mph - N/A   Partly Cloudy
5:56 PM 93.9 °F 92.2 °F 55.9 °F 28% 29.81 in 10.0 mi North 12.7 mph - N/A   Partly Cloudy
6:56 PM 91.0 °F 89.7 °F 57.0 °F 32% 29.81 in 10.0 mi North 13.8 mph - N/A   Clear
7:56 PM 86.0 °F 84.9 °F 57.0 °F 37% 29.82 in 10.0 mi NNW 11.5 mph - N/A   Clear
8:56 PM 82.9 °F 82.4 °F 57.0 °F 41% 29.83 in 10.0 mi NW 11.5 mph - N/A   Clear
9:56 PM 81.0 °F 81.0 °F 57.0 °F 44% 29.85 in 10.0 mi NW 12.7 mph - N/A   Clear
10:56 PM 80.1 °F 80.2 °F 55.9 °F 43% 29.86 in 10.0 mi NW 17.3 mph - N/A   Partly Cloudy
11:56 PM 77.0 °F - 55.0 °F 47% 29.86 in 10.0 mi NW 12.7 mph - N/A   Clear